Weather History for Meridian, MS

Change the Weather History Date:

Monday, September 2, 2013

  Actual Average Record
Temperature  
Mean Temperature 83 °F 79 °F  
Max Temperature 94 °F 90 °F 100 °F (1951)
Min Temperature 71 °F 67 °F 54 °F (1892)
Degree Days  
Heating Degree Days 0 0  
Month to date heating degree days 0 0  
Since 1 July heating degree days 0 0  
Cooling Degree Days 18 14  
Month to date cooling degree days 36 28  
Year to date cooling degree days 1616 1648  
Growing Degree Days 32 (Base 50)    
Moisture  
Dew Point 72 °F    
Average Humidity 75    
Maximum Humidity 100    
Minimum Humidity 49    
Precipitation  
Precipitation T in 0.11 in 2.53 in (1941)
Month to date precipitation T 0.22  
Year to date precipitation 49.52 39.18  
Sea Level Pressure  
Sea Level Pressure 29.92 in    
Wind  
Wind Speed 4 mph (SW)    
Max Wind Speed 23 mph    
Max Gust Speed 28 mph    
Visibility 7 miles    
Events Thunderstorm    
T = Trace of Precipitation, MM = Missing Value Source: NWS Daily Summary

Daily Weather History Graph

Daily Weather History Graph

Search for Another Location

Airport:

Trip Planner

Search our weather history database for the weather conditions in past years. The results will help you decide how hot, cold, wet, or windy it might be!

Date:

Astronomy

Sep. 02, 2013 Rise Set
Actual Time 6:30 AM CDT 7:17 PM CDT
Civil Twilight 6:05 AM CDT 7:42 PM CDT
Nautical Twilight 5:36 AM CDT 8:12 PM CDT
Astronomical Twilight 5:06 AM CDT 8:42 PM CDT
Moon 3:53 AM CDT (9/2) 5:26 PM CDT (9/2)
Length of Visible Light 13h 36m
Length of Day
12h 46m
Waning Crescent, 8% of the Moon is Illuminated
Sep 2
Waning Crescent
Sep 5
New
Sep 12
First Quarter
Sep 19
Full
Sep 26
Last Quarter

Hourly Weather History & Observations

Time (CDT) Temp. Heat Index Dew Point Humidity Pressure Visibility Wind Dir Wind Speed Gust Speed Precip Events Conditions
12:58 AM 73.9 °F - 72.0 °F 93% 29.91 in 5.0 mi Calm Calm - N/A   Clear
1:58 AM 73.9 °F - 72.0 °F 93% 29.91 in 5.0 mi SW 3.5 mph - N/A   Clear
2:58 AM 73.0 °F - 72.0 °F 96% 29.90 in 4.0 mi South 5.8 mph - N/A   Clear
3:58 AM 73.0 °F - 71.1 °F 93% 29.90 in 4.0 mi South 3.5 mph - N/A   Clear
4:58 AM 73.0 °F - 71.1 °F 93% 29.91 in 3.0 mi South 4.6 mph - N/A   Clear
5:58 AM 72.0 °F - 71.1 °F 97% 29.92 in 4.0 mi SSW 3.5 mph - N/A   Clear
6:41 AM 71.6 °F - 71.6 °F 100% 29.94 in 2.5 mi Calm Calm - 0.01 in   Clear
6:58 AM 72.0 °F - 71.1 °F 97% 29.94 in 2.5 mi South 3.5 mph - 0.01 in   Clear
7:36 AM 73.4 °F - 71.6 °F 94% 29.95 in 3.0 mi South 3.5 mph - N/A   Clear
7:58 AM 73.9 °F - 72.0 °F 93% 29.94 in 3.0 mi South 4.6 mph - N/A   Clear
8:58 AM 80.1 °F 84.2 °F 73.0 °F 79% 29.96 in 10.0 mi West 5.8 mph - N/A   Clear
9:58 AM 84.9 °F 91.4 °F 73.0 °F 67% 29.96 in 10.0 mi WNW 9.2 mph - N/A   Clear
10:58 AM 89.1 °F 97.0 °F 73.0 °F 59% 29.97 in 10.0 mi WSW 9.2 mph - N/A   Clear
11:58 AM 90.0 °F 97.9 °F 73.0 °F 57% 29.97 in 10.0 mi West 6.9 mph - N/A   Mostly Cloudy
12:58 PM 91.0 °F 96.6 °F 70.0 °F 50% 29.94 in 10.0 mi West 5.8 mph - N/A   Scattered Clouds
1:58 PM 93.0 °F 100.1 °F 71.1 °F 49% 29.91 in 10.0 mi Variable 3.5 mph - N/A   Scattered Clouds
2:50 PM 82.4 °F 86.3 °F 69.8 °F 66% 29.93 in 10.0 mi NW 12.7 mph - N/A Thunderstorm Mostly Cloudy
2:58 PM 79.0 °F - 70.0 °F 74% 29.91 in 10.0 mi WNW 11.5 mph 23.0 mph N/A Thunderstorm Mostly Cloudy
3:47 PM 82.4 °F 85.4 °F 68.0 °F 62% 29.89 in 10.0 mi Calm Calm - 0.00 in   Clear
3:58 PM 81.0 °F 84.4 °F 70.0 °F 69% 29.89 in 10.0 mi SW 5.8 mph - 0.00 in   Clear
4:58 PM 82.9 °F 87.5 °F 71.1 °F 67% 29.87 in 10.0 mi South 4.6 mph - N/A   Clear
5:58 PM 82.9 °F 88.8 °F 73.0 °F 72% 29.88 in 10.0 mi Calm Calm - N/A   Clear
6:58 PM 81.0 °F 86.7 °F 75.0 °F 82% 29.89 in 10.0 mi Calm Calm - N/A   Clear
7:58 PM 78.1 °F - 75.9 °F 93% 29.89 in 10.0 mi SSW 5.8 mph - N/A   Clear
8:58 PM 77.0 °F - 75.0 °F 94% 29.91 in 9.0 mi SSW 4.6 mph - N/A   Clear
9:58 PM 77.0 °F - 73.9 °F 90% 29.92 in 8.0 mi Calm Calm - N/A   Clear
10:58 PM 75.0 °F - 73.0 °F 94% 29.92 in 7.0 mi Calm Calm - N/A   Clear
11:58 PM 73.9 °F - 73.0 °F 97% 29.92 in 6.0 mi South 3.5 mph - N/A   Partly Cloudy